DW9278 Weather Reports


time (UTC)temp
C
wind
direction
speed
KPH
gust
KPH
rain 1hr
cm
rain 24hr
cm
rain mn
cm
humidity
%
barometer
mb
20260506211508 23 289 4.8 11.3 0.00 0.00 0.00 56 1016.7
20260506211007 23 288 4.8 12.9 0.00 0.00 0.00 56 1016.7
20260506210505 22 355 6.4 14.5 0.00 0.00 0.00 58 1016.7
20260506210011 22 29 4.8 14.5 0.00 0.00 0.00 59 1016.8
20260506205510 22 56 6.4 12.9 0.00 0.00 0.00 58 1016.7
20260506205008 22 304 4.8 14.5 0.00 0.00 0.00 58 1016.8
20260506204510 22 353 4.8 14.5 0.00 0.00 0.00 58 1016.9
20260506204010 22 295 6.4 17.7 0.00 0.00 0.00 59 1016.9
20260506203508 22 352 6.4 17.7 0.00 0.00 0.00 58 1017.0
20260506203011 22 22 4.8 12.9 0.00 0.00 0.00 58 1017.0
20260506202510 22 48 3.2 12.9 0.00 0.00 0.00 56 1017.1
20260506202012 23 255 1.6 6.4 0.00 0.00 0.00 54 1017.2
20260506201507 22 1 3.2 9.7 0.00 0.00 0.00 55 1017.3
20260506201009 21 350 4.8 12.9 0.00 0.00 0.00 55 1017.4
20260506200507 21 297 6.4 17.7 0.00 0.00 0.00 55 1017.5
20260506200010 21 328 4.8 16.1 0.00 0.00 0.00 55 1017.5
20260506195510 21 70 4.8 14.5 0.00 0.00 0.00 57 1017.5
20260506194507 21 70 6.4 14.5 0.00 0.00 0.00 56 1017.7
20260506194009 21 20 4.8 11.3 0.00 0.00 0.00 57 1017.8
20260506193512 21 72 4.8 8.0 0.00 0.00 0.00 55 1017.7
20260506193011 21 331 4.8 11.3 0.00 0.00 0.00 58 1017.7
20260506192006 21 52 4.8 11.3 0.00 0.00 0.00 58 1017.8
20260506190505 22 19 3.2 9.7 0.00 0.00 0.00 59 1018.0
20260506190023 21 247 1.6 6.4 0.00 0.00 0.00 59 1017.9
20260506185507 21 301 3.2 6.4 0.00 0.00 0.00 61 1018.0
20260506185011 21 1 3.2 8.0 0.00 0.00 0.00 61 1018.0
20260506184511 21 291 3.2 8.0 0.00 0.00 0.00 62 1018.1
20260506184008 20 4 3.2 9.7 0.00 0.00 0.00 62 1018.2
20260506183505 20 349 4.8 16.1 0.00 0.00 0.00 62 1018.2
20260506183007 21 288 3.2 16.1 0.00 0.00 0.00 61 1018.2
20260506182507 20 1 3.2 9.7 0.00 0.00 0.00 63 1018.2
20260506182011 21 15 3.2 11.3 0.00 0.00 0.00 62 1018.2
20260506181509 20 341 4.8 11.3 0.00 0.00 0.00 64 1018.3
20260506181010 20 46 4.8 9.7 0.00 0.00 0.00 64 1018.2
20260506180510 20 6 4.8 8.0 0.00 0.00 0.00 64 1018.2
20260506180008 20 285 3.2 9.7 0.00 0.00 0.00 63 1018.3
20260506175011 20 36 3.2 8.0 0.00 0.00 0.00 64 1018.3
20260506174010 19 116 3.2 8.0 0.00 0.00 0.00 65 1018.2
20260506173509 19 40 3.2 8.0 0.00 0.00 0.00 64 1018.2
20260506173010 19 348 1.6 4.8 0.00 0.00 0.00 64 1018.2
20260506172009 19 347 3.2 8.0 0.00 0.00 0.00 66 1018.3
20260506171506 18 304 3.2 6.4 0.00 0.00 0.00 67 1018.4
20260506171011 18 20 1.6 6.4 0.00 0.00 0.00 68 1018.4
20260506170510 18 349 1.6 6.4 0.00 0.00 0.00 68 1018.3
20260506170010 18 343 1.6 3.2 0.00 0.00 0.00 68 1018.4
20260506165510 17 238 1.6 6.4 0.00 0.00 0.00 70 1018.4
20260506165008 17 50 3.2 6.4 0.00 0.00 0.00 69 1018.4
20260506164508 17 354 3.2 6.4 0.00 0.00 0.00 69 1018.4
20260506163505 17 6 1.6 4.8 0.00 0.00 0.00 70 1018.4
20260506163010 17 65 1.6 3.2 0.00 0.00 0.00 71 1018.4
20260506162509 17 33 1.6 4.8 0.00 0.00 0.00 71 1018.4
20260506162009 17 321 1.6 4.8 0.00 0.00 0.00 71 1018.4
20260506161511 16 49 1.6 4.8 0.00 0.00 0.00 72 1018.4
20260506161010 16 322 0.0 3.2 0.00 0.00 0.00 72 1018.4
20260506160509 16 326 0.0 1.6 0.00 0.00 0.00 72 1018.4
20260506160017 16 302 0.0 3.2 0.00 0.00 0.00 74 1018.5
20260506155509 16 330 1.6 3.2 0.00 0.00 0.00 73 1018.5
20260506155006 16 302 1.6 3.2 0.00 0.00 0.00 74 1018.5
20260506153509 15 252 1.6 4.8 0.00 0.00 0.00 75 1018.5
20260506153014 15 256 0.0 3.2 0.00 0.00 0.00 76 1018.5
20260506152510 15 282 0.0 1.6 0.00 0.00 0.00 76 1018.5
20260506152008 15 282 0.0 1.6 0.00 0.00 0.00 75 1018.5
20260506151509 15 282 0.0 1.6 0.00 0.00 0.00 77 1018.5
20260506151012 15 282 0.0 1.6 0.00 0.00 0.00 77 1018.5
20260506150505 15 282 0.0 1.6 0.00 0.00 0.00 77 1018.5
20260506150022 15 282 0.0 0.0 0.00 0.00 0.00 78 1018.5
20260506145509 15 282 0.0 0.0 0.00 0.00 0.00 78 1018.5
20260506144507 14 282 0.0 0.0 0.00 0.00 0.00 78 1018.4
20260506143509 14 282 0.0 0.0 0.00 0.00 0.00 78 1018.4
20260506143010 14 282 0.0 0.0 0.00 0.00 0.00 79 1018.3
20260506142509 14 282 0.0 0.0 0.00 0.00 0.00 79 1018.3
20260506142010 13 282 0.0 0.0 0.00 0.00 0.00 80 1018.2
20260506141511 13 282 0.0 0.0 0.00 0.00 0.00 80 1018.2
20260506141009 13 282 0.0 0.0 0.00 0.00 0.00 80 1018.1
20260506140510 13 282 0.0 0.0 0.00 0.00 0.00 80 1018.0
20260506135508 13 282 0.0 0.0 0.00 0.00 0.00 81 1018.0
20260506135009 13 282 0.0 0.0 0.00 0.00 0.00 81 1017.9
20260506134010 13 282 0.0 0.0 0.00 0.00 0.00 81 1017.9
20260506133510 13 282 0.0 1.6 0.00 0.00 0.00 81 1017.8
20260506132009 13 282 0.0 0.0 0.00 0.00 0.00 81 1017.6
20260506131509 13 282 0.0 0.0 0.00 0.00 0.00 81 1017.6
20260506131009 13 282 0.0 0.0 0.00 0.00 0.00 81 1017.6
20260506130505 13 282 0.0 0.0 0.00 0.00 0.00 81 1017.6
20260506130008 13 282 0.0 0.0 0.00 0.00 0.00 81 1017.5
20260506125507 13 282 0.0 0.0 0.00 0.00 0.00 81 1017.5
20260506125009 13 282 0.0 0.0 0.00 0.00 0.00 81 1017.5
20260506124510 13 282 0.0 0.0 0.00 0.00 0.00 81 1017.5
20260506124007 13 282 0.0 0.0 0.00 0.00 0.00 80 1017.4
20260506122007 13 282 0.0 1.6 0.00 0.00 0.00 80 1017.4
20260506121505 13 282 0.0 1.6 0.00 0.00 0.00 80 1017.4
20260506121009 13 282 0.0 1.6 0.00 0.00 0.00 80 1017.4
20260506120506 13 282 0.0 1.6 0.00 0.00 0.00 80 1017.4
20260506120022 13 282 0.0 0.0 0.00 0.00 0.00 80 1017.4
20260506115510 13 282 0.0 1.6 0.00 0.00 0.00 80 1017.3
20260506115006 13 282 0.0 1.6 0.00 0.00 0.00 80 1017.3
20260506114006 13 282 0.0 1.6 0.00 0.00 0.00 80 1017.2
20260506113010 13 281 0.0 3.2 0.00 0.00 0.00 80 1017.1
20260506112508 13 281 0.0 1.6 0.00 0.00 0.00 80 1017.1
20260506112008 13 281 0.0 1.6 0.00 0.00 0.00 80 1017.0
20260506111509 13 281 0.0 3.2 0.00 0.00 0.00 80 1017.0
20260506111010 13 281 1.6 4.8 0.00 0.00 0.00 80 1016.9
20260506110508 13 248 1.6 4.8 0.00 0.00 0.00 80 1016.8
20260506105505 13 252 3.2 8.0 0.00 0.08 0.00 79 1016.7
20260506105007 13 236 3.2 9.7 0.00 0.08 0.00 79 1016.7
20260506104510 13 262 3.2 9.7 0.00 0.08 0.00 79 1016.8
20260506104005 13 276 3.2 9.7 0.00 0.08 0.00 79 1016.7
20260506103506 13 281 3.2 8.0 0.00 0.08 0.00 79 1016.7
20260506103009 13 280 4.8 9.7 0.00 0.08 0.00 79 1016.7
20260506102007 13 321 3.2 9.7 0.00 0.08 0.00 79 1016.6
20260506101506 13 249 3.2 8.0 0.00 0.08 0.00 79 1016.6
20260506101010 13 287 3.2 6.4 0.00 0.08 0.00 79 1016.6
20260506100010 13 262 3.2 8.0 0.00 0.08 0.00 79 1016.6
20260506095505 13 285 3.2 8.0 0.00 0.15 0.00 79 1016.6
20260506095012 13 343 3.2 6.4 0.00 0.15 0.00 79 1016.5
20260506094010 13 283 3.2 9.7 0.00 0.15 0.00 80 1016.5
20260506093507 13 271 1.6 8.0 0.00 0.15 0.00 80 1016.5
20260506093011 13 259 1.6 6.4 0.00 0.15 0.00 80 1016.5
20260506092505 13 297 1.6 6.4 0.00 0.15 0.00 80 1016.5
20260506092012 13 269 1.6 6.4 0.00 0.15 0.00 80 1016.4
20260506091509 13 296 0.0 3.2 0.00 0.15 0.00 81 1016.5
20260506091008 13 296 0.0 3.2 0.00 0.15 0.00 81 1016.5
20260506090021 13 295 1.6 4.8 0.00 0.15 0.00 80 1016.5
20260506085509 13 288 0.0 4.8 0.00 0.23 0.00 81 1016.6
20260506085010 13 349 0.0 3.2 0.00 0.23 0.00 81 1016.7
20260506084505 13 349 0.0 1.6 0.00 0.23 0.00 81 1016.6
20260506084006 13 349 0.0 1.6 0.00 0.23 0.00 81 1016.6
20260506083510 13 349 0.0 3.2 0.00 0.23 0.00 80 1016.6
20260506083007 13 349 0.0 3.2 0.00 0.23 0.00 81 1016.6
20260506082507 13 349 0.0 1.6 0.00 0.23 0.00 81 1016.7
20260506081505 13 349 0.0 3.2 0.00 0.23 0.00 81 1016.6
20260506080506 13 350 1.6 3.2 0.00 0.23 0.00 80 1016.5
20260506073506 13 255 3.2 9.7 0.00 0.25 0.00 80 1016.2
20260506073009 13 286 4.8 11.3 0.00 0.25 0.00 80 1016.2
20260506072009 12 262 4.8 14.5 0.00 0.25 0.00 82 1016.0
20260506071506 12 263 1.6 14.5 0.00 0.25 0.00 83 1016.1
20260506071008 12 265 0.0 3.2 0.00 0.25 0.00 83 1016.1
20260506070509 12 265 0.0 1.6 0.00 0.25 0.00 83 1016.1
20260506062506 13 264 1.6 4.8 0.00 0.33 0.25 82 1015.7
20260506061009 13 278 0.0 3.2 0.00 0.33 0.25 81 1015.7
20260506051008 14 253 1.6 3.2 0.00 0.33 0.25 77 1015.2
20260506050508 14 257 1.6 6.4 0.00 0.33 0.25 77 1015.0
20260506045009 15 267 1.6 3.2 0.00 0.33 0.25 76 1015.0
20260506044506 15 271 3.2 6.4 0.00 0.33 0.25 75 1014.9
20260506044013 15 278 4.8 9.7 0.00 0.33 0.25 75 1014.8
20260506043507 15 255 4.8 11.3 0.00 0.33 0.25 75 1014.8
20260506043011 15 287 4.8 11.3 0.00 0.33 0.25 75 1014.7
20260506042007 15 269 3.2 9.7 0.00 0.33 0.25 74 1014.6
20260506041508 15 293 3.2 9.7 0.00 0.33 0.25 74 1014.4
20260506041008 16 314 6.4 14.5 0.00 0.33 0.25 73 1014.4
20260506040506 16 285 8.0 14.5 0.00 0.33 0.25 73 1014.3
20260506035507 16 253 8.0 16.1 0.00 0.33 0.25 73 1014.3
20260506035010 16 281 8.0 16.1 0.00 0.33 0.25 73 1014.3
20260506034507 16 284 6.4 14.5 0.00 0.33 0.25 72 1014.3
20260506034011 16 239 6.4 14.5 0.00 0.33 0.25 72 1014.2
20260506033509 16 242 8.0 17.7 0.00 0.33 0.25 72 1014.1
20260506033009 16 274 9.7 19.3 0.00 0.33 0.25 72 1014.0
20260506032507 16 237 8.0 19.3 0.00 0.33 0.25 72 1013.9
20260506032010 16 274 9.7 16.1 0.00 0.33 0.25 72 1013.9
20260506031510 16 248 8.0 19.3 0.00 0.33 0.25 72 1013.8
20260506031009 16 251 8.0 14.5 0.00 0.33 0.25 72 1013.7
20260506030510 16 293 8.0 17.7 0.00 0.33 0.25 72 1013.8
20260506030024 16 263 8.0 17.7 0.00 0.33 0.25 72 1013.8
20260506025506 16 246 6.4 19.3 0.00 0.33 0.25 72 1013.8
20260506025011 16 285 6.4 19.3 0.00 0.33 0.25 72 1013.7
20260506024507 16 240 8.0 14.5 0.00 0.33 0.25 72 1013.6
20260506024009 16 254 8.0 16.1 0.00 0.33 0.25 72 1013.6
20260506023510 16 260 9.7 17.7 0.00 0.33 0.25 72 1013.6
20260506023010 16 259 9.7 17.7 0.00 0.33 0.25 72 1013.5
20260506022510 16 236 8.0 17.7 0.00 0.33 0.25 72 1013.5
20260506022012 16 271 8.0 17.7 0.00 0.33 0.25 72 1013.4
20260506021510 16 288 8.0 17.7 0.00 0.33 0.25 71 1013.3
20260506021010 17 210 6.4 17.7 0.00 0.33 0.25 71 1013.3
20260506020507 17 240 6.4 12.9 0.00 0.33 0.25 71 1013.3
20260506020023 17 236 6.4 14.5 0.00 0.33 0.25 71 1013.2
20260506015510 17 262 6.4 14.5 0.00 0.33 0.25 70 1013.2
20260506015008 17 297 4.8 12.9 0.00 0.33 0.25 70 1013.2
20260506014507 17 256 4.8 11.3 0.00 0.33 0.25 70 1013.1
20260506014012 17 247 4.8 11.3 0.00 0.33 0.25 70 1013.2
20260506013507 17 243 1.6 9.7 0.00 0.33 0.25 69 1013.2
20260506013011 17 212 1.6 4.8 0.00 0.33 0.25 69 1013.2
20260506012009 17 240 3.2 9.7 0.00 0.33 0.25 69 1013.1
20260506011506 17 121 4.8 11.3 0.00 0.33 0.25 69 1013.1
20260506011009 17 219 4.8 8.0 0.00 0.33 0.25 69 1013.0
20260506010507 17 153 3.2 8.0 0.00 0.33 0.25 69 1013.0
20260506010021 17 136 3.2 8.0 0.00 0.33 0.25 69 1013.1
20260506005509 17 218 4.8 9.7 0.00 0.33 0.25 69 1013.0
20260506005010 18 232 3.2 9.7 0.00 0.33 0.25 69 1013.0
20260506004510 18 153 4.8 9.7 0.00 0.33 0.25 69 1013.0
20260506004010 18 250 4.8 9.7 0.00 0.33 0.25 69 1013.0
20260506003505 18 229 3.2 9.7 0.00 0.33 0.25 70 1013.0
20260506003009 17 192 3.2 9.7 0.00 0.33 0.25 70 1013.0
20260506002512 17 144 4.8 9.7 0.00 0.33 0.25 70 1013.0
20260506002008 17 233 6.4 12.9 0.00 0.33 0.25 71 1012.9
20260506001507 17 228 4.8 12.9 0.00 0.33 0.25 71 1012.8
20260506001009 17 253 4.8 11.3 0.00 0.33 0.25 71 1012.9
20260506000510 17 248 6.4 11.3 0.00 0.33 0.25 71 1013.0
20260506000009 17 255 4.8 11.3 0.00 0.33 0.25 70 1013.0
20260505235506 17 249 1.6 9.7 0.00 0.33 0.25 69 1013.0
20260505235008 17 269 1.6 8.0 0.00 0.33 0.25 69 1012.9
20260505234510 17 220 3.2 8.0 0.00 0.33 0.25 70 1012.9
20260505234008 17 159 3.2 11.3 0.00 0.33 0.25 69 1012.9
20260505233511 18 304 1.6 11.3 0.00 0.33 0.25 69 1012.9
20260505233006 18 331 0.0 3.2 0.00 0.33 0.25 69 1012.9
20260505232011 18 288 1.6 6.4 0.00 0.33 0.25 69 1012.9
20260505231511 18 319 1.6 6.4 0.00 0.33 0.25 69 1012.9
20260505231007 17 345 1.6 4.8 0.00 0.33 0.25 69 1012.9
20260505230507 17 276 1.6 4.8 0.00 0.33 0.25 68 1013.0
20260505230006 17 243 1.6 4.8 0.00 0.33 0.25 69 1013.0
20260505225509 17 240 1.6 6.4 0.00 0.33 0.25 69 1013.1
20260505225010 17 286 3.2 8.0 0.00 0.33 0.25 69 1013.0
20260505224512 17 306 1.6 8.0 0.00 0.33 0.25 69 1013.1
20260505224011 17 265 1.6 8.0 0.00 0.33 0.25 69 1013.1
20260505223505 17 278 1.6 8.0 0.00 0.33 0.25 70 1013.1
20260505223012 17 260 1.6 3.2 0.00 0.33 0.25 70 1013.1
20260505222507 17 333 3.2 9.7 0.00 0.33 0.25 70 1013.2
20260505222006 17 287 3.2 9.7 0.00 0.33 0.25 70 1013.2
20260505221006 17 255 3.2 8.0 0.00 0.33 0.25 70 1013.3
20260505220511 17 323 1.6 8.0 0.00 0.33 0.25 70 1013.2
20260505220024 17 340 3.2 6.4 0.00 0.33 0.25 70 1013.2
20260505215508 17 349 3.2 9.7 0.00 0.33 0.25 69 1013.2
20260505215006 17 293 3.2 8.0 0.00 0.33 0.25 70 1013.3
20260505214509 17 224 3.2 8.0 0.00 0.33 0.25 70 1013.3
20260505214007 17 278 4.8 9.7 0.00 0.33 0.25 70 1013.3
20260505213506 17 296 3.2 9.7 0.00 0.33 0.25 71 1013.4
20260505213012 17 297 1.6 6.4 0.00 0.33 0.25 70 1013.4
20260505212518 17 290 3.2 9.7 0.00 0.33 0.25 71 1013.4
20260505212014 17 293 6.4 11.3 0.00 0.33 0.25 71 1013.5